Time,TemperatureF,DewpointF,PressureIn,WindDirection,WindDirectionDegrees,WindSpeedMPH,WindSpeedGustMPH,Humidity,HourlyPrecipIn,Conditions,Clouds,dailyrainin,SoftwareType,DateUTC
2013-04-11 00:04:00,73.9,71.0,29.99,SE,145,3.0,6.0,89,0.00,,,0.00,weatherlink.com 1.10,2013-04-11 04:04:00,
2013-04-11 00:19:00,73.9,71.0,29.98,East,85,1.0,6.0,89,0.00,,,0.00,weatherlink.com 1.10,2013-04-11 04:19:00,
2013-04-11 00:34:00,73.7,71.0,29.98,ESE,108,2.0,5.0,90,0.00,,,0.00,weatherlink.com 1.10,2013-04-11 04:34:00,
2013-04-11 00:49:00,73.5,71.0,29.98,SE,136,2.0,6.0,90,0.00,,,0.00,weatherlink.com 1.10,2013-04-11 04:49:00,
2013-04-11 01:04:00,72.9,70.0,29.97,ESE,123,1.0,5.0,91,0.00,,,0.00,weatherlink.com 1.10,2013-04-11 05:04:00,
2013-04-11 01:19:00,72.5,70.0,29.97,NNE,19,1.0,4.0,91,0.00,,,0.00,weatherlink.com 1.10,2013-04-11 05:19:00,
2013-04-11 01:34:00,72.2,70.0,29.96,SE,131,1.0,3.0,92,0.00,,,0.00,weatherlink.com 1.10,2013-04-11 05:34:00,
2013-04-11 01:49:00,72.1,70.0,29.96,SE,146,1.0,3.0,92,0.00,,,0.00,weatherlink.com 1.10,2013-04-11 05:49:00,
2013-04-11 02:04:00,72.0,70.0,29.95,SE,141,1.0,4.0,93,0.00,,,0.00,weatherlink.com 1.10,2013-04-11 06:04:00,
2013-04-11 02:19:00,72.0,70.0,29.95,ESE,104,1.0,4.0,93,0.00,,,0.00,weatherlink.com 1.10,2013-04-11 06:19:00,
2013-04-11 02:34:00,72.0,70.0,29.94,SE,127,1.0,4.0,93,0.00,,,0.00,weatherlink.com 1.10,2013-04-11 06:34:00,
2013-04-11 02:49:00,72.0,70.0,29.94,SE,134,1.0,3.0,93,0.00,,,0.00,weatherlink.com 1.10,2013-04-11 06:49:00,
2013-04-11 03:04:00,72.0,70.0,29.93,ESE,102,0.0,3.0,93,0.00,,,0.00,weatherlink.com 1.10,2013-04-11 07:04:00,
2013-04-11 03:19:00,72.0,70.0,29.93,East,95,0.0,4.0,94,0.00,,,0.00,weatherlink.com 1.10,2013-04-11 07:19:00,
2013-04-11 03:34:00,72.1,70.0,29.93,SE,126,2.0,5.0,94,0.00,,,0.00,weatherlink.com 1.10,2013-04-11 07:34:00,
2013-04-11 03:49:00,72.0,70.0,29.93,ENE,63,1.0,3.0,94,0.00,,,0.00,weatherlink.com 1.10,2013-04-11 07:49:00,
2013-04-11 04:04:00,72.0,70.0,29.92,ESE,105,1.0,5.0,94,0.00,,,0.00,weatherlink.com 1.10,2013-04-11 08:04:00,
2013-04-11 04:19:00,71.9,70.0,29.92,SE,145,0.0,5.0,94,0.00,,,0.00,weatherlink.com 1.10,2013-04-11 08:19:00,
2013-04-11 04:34:00,71.8,70.0,29.92,SE,132,0.0,4.0,94,0.00,,,0.00,weatherlink.com 1.10,2013-04-11 08:34:00,
2013-04-11 04:49:00,71.8,70.0,29.92,ESE,120,0.0,4.0,94,0.00,,,0.00,weatherlink.com 1.10,2013-04-11 08:49:00,
2013-04-11 05:04:00,71.7,70.0,29.92,ESE,120,1.0,3.0,94,0.00,,,0.00,weatherlink.com 1.10,2013-04-11 09:04:00,
2013-04-11 05:19:00,71.6,70.0,29.92,SSE,149,0.0,5.0,94,0.00,,,0.00,weatherlink.com 1.10,2013-04-11 09:19:00,
2013-04-11 05:34:00,71.5,70.0,29.92,South,184,2.0,4.0,95,0.00,,,0.00,weatherlink.com 1.10,2013-04-11 09:34:00,
2013-04-11 05:49:00,71.4,70.0,29.92,East,96,1.0,4.0,95,0.00,,,0.00,weatherlink.com 1.10,2013-04-11 09:49:00,
2013-04-11 06:04:00,71.2,70.0,29.92,SE,132,1.0,4.0,95,0.00,,,0.00,weatherlink.com 1.10,2013-04-11 10:04:00,
2013-04-11 06:19:00,71.2,70.0,29.92,SE,131,0.0,5.0,95,0.00,,,0.00,weatherlink.com 1.10,2013-04-11 10:19:00,
2013-04-11 06:34:00,71.1,70.0,29.92,ESE,115,2.0,4.0,95,0.00,,,0.00,weatherlink.com 1.10,2013-04-11 10:34:00,
2013-04-11 06:49:00,71.2,70.0,29.93,East,98,3.0,7.0,95,0.00,,,0.00,weatherlink.com 1.10,2013-04-11 10:49:00,
2013-04-11 07:05:00,71.3,70.0,29.93,SE,127,3.0,4.0,95,0.00,,,0.00,weatherlink.com 1.10,2013-04-11 11:05:00,
2013-04-11 07:20:00,71.3,70.0,29.93,ESE,113,2.0,3.0,95,0.00,,,0.00,weatherlink.com 1.10,2013-04-11 11:20:00,
2013-04-11 07:35:00,71.6,70.0,29.94,ENE,75,1.0,4.0,95,0.00,,,0.00,weatherlink.com 1.10,2013-04-11 11:35:00,
2013-04-11 07:50:00,72.3,71.0,29.94,ESE,105,2.0,6.0,94,0.00,,,0.00,weatherlink.com 1.10,2013-04-11 11:50:00,
2013-04-11 08:05:00,73.1,71.0,29.95,East,97,3.0,5.0,93,0.00,,,0.00,weatherlink.com 1.10,2013-04-11 12:05:00,
2013-04-11 08:20:00,74.2,72.0,29.95,SE,129,3.0,6.0,91,0.00,,,0.00,weatherlink.com 1.10,2013-04-11 12:20:00,
2013-04-11 08:35:00,74.8,72.0,29.95,SE,139,2.0,9.0,90,0.00,,,0.00,weatherlink.com 1.10,2013-04-11 12:35:00,
2013-04-11 08:50:00,75.4,72.0,29.95,SE,127,2.0,7.0,89,0.00,,,0.00,weatherlink.com 1.10,2013-04-11 12:50:00,
2013-04-11 09:05:00,76.4,73.0,29.95,SSE,149,3.0,7.0,88,0.00,,,0.00,weatherlink.com 1.10,2013-04-11 13:05:00,
2013-04-11 09:20:00,76.9,73.0,29.95,SE,145,3.0,9.0,86,0.00,,,0.00,weatherlink.com 1.10,2013-04-11 13:20:00,
2013-04-11 09:35:00,77.5,73.0,29.96,East,89,2.0,9.0,86,0.00,,,0.00,weatherlink.com 1.10,2013-04-11 13:35:00,
2013-04-11 09:50:00,77.9,73.0,29.95,SE,138,2.0,11.0,85,0.00,,,0.00,weatherlink.com 1.10,2013-04-11 13:50:00,
2013-04-11 10:05:00,79.0,74.0,29.95,SE,129,4.0,9.0,84,0.00,,,0.00,weatherlink.com 1.10,2013-04-11 14:05:00,
2013-04-11 10:20:00,80.2,74.0,29.95,SE,135,2.0,9.0,80,0.00,,,0.00,weatherlink.com 1.10,2013-04-11 14:20:00,
2013-04-11 10:35:00,81.0,74.0,29.96,SSE,160,4.0,13.0,79,0.00,,,0.00,weatherlink.com 1.10,2013-04-11 14:35:00,
2013-04-11 10:50:00,81.2,73.0,29.96,SE,124,6.0,9.0,77,0.00,,,0.00,weatherlink.com 1.10,2013-04-11 14:50:00,
2013-04-11 11:05:00,81.8,73.0,29.96,ESE,116,3.0,11.0,75,0.00,,,0.00,weatherlink.com 1.10,2013-04-11 15:05:00,
2013-04-11 11:20:00,82.6,73.0,29.96,South,171,3.0,10.0,73,0.00,,,0.00,weatherlink.com 1.10,2013-04-11 15:20:00,
2013-04-11 11:35:00,84.0,74.0,29.95,ENE,66,3.0,8.0,72,0.00,,,0.00,weatherlink.com 1.10,2013-04-11 15:35:00,
2013-04-11 11:50:00,85.2,74.0,29.95,NE,51,6.0,9.0,69,0.00,,,0.00,weatherlink.com 1.10,2013-04-11 15:50:00,
2013-04-11 12:05:00,84.2,73.0,29.94,SSE,158,5.0,9.0,69,0.00,,,0.00,weatherlink.com 1.10,2013-04-11 16:05:00,
2013-04-11 12:20:00,84.4,73.0,29.94,South,181,3.0,11.0,69,0.00,,,0.00,weatherlink.com 1.10,2013-04-11 16:20:00,
2013-04-11 12:35:00,85.8,73.0,29.93,SE,139,3.0,12.0,66,0.00,,,0.00,weatherlink.com 1.10,2013-04-11 16:35:00,
2013-04-11 12:50:00,87.0,73.0,29.92,SSW,212,5.0,10.0,63,0.00,,,0.00,weatherlink.com 1.10,2013-04-11 16:50:00,
2013-04-11 13:06:00,86.3,72.0,29.92,ESE,120,4.0,9.0,63,0.00,,,0.00,weatherlink.com 1.10,2013-04-11 17:06:00,
2013-04-11 13:21:00,88.0,73.0,29.92,ESE,115,2.0,8.0,61,0.00,,,0.00,weatherlink.com 1.10,2013-04-11 17:21:00,
2013-04-11 13:36:00,88.0,73.0,29.91,NW,307,3.0,12.0,62,0.00,,,0.00,weatherlink.com 1.10,2013-04-11 17:36:00,
2013-04-11 13:51:00,88.9,73.0,29.90,SE,129,5.0,10.0,60,0.00,,,0.00,weatherlink.com 1.10,2013-04-11 17:51:00,
2013-04-11 14:06:00,89.0,74.0,29.89,SE,138,2.0,8.0,61,0.00,,,0.00,weatherlink.com 1.10,2013-04-11 18:06:00,
2013-04-11 14:36:00,86.8,73.0,29.89,South,172,4.0,13.0,64,0.00,,,0.00,weatherlink.com 1.10,2013-04-11 18:36:00,
2013-04-11 15:06:00,86.6,74.0,29.89,SW,225,3.0,12.0,66,0.00,,,0.00,weatherlink.com 1.10,2013-04-11 19:06:00,
2013-04-11 15:21:00,87.7,74.0,29.88,South,184,3.0,11.0,63,0.00,,,0.00,weatherlink.com 1.10,2013-04-11 19:21:00,
2013-04-11 15:51:00,86.3,75.0,29.88,South,191,6.0,13.0,68,0.00,,,0.00,weatherlink.com 1.10,2013-04-11 19:51:00,
2013-04-11 16:21:00,82.8,76.0,29.86,SSW,201,3.0,5.0,80,0.01,,,0.01,weatherlink.com 1.10,2013-04-11 20:21:00,
2013-04-11 16:36:00,84.3,75.0,29.86,SW,219,3.0,10.0,74,0.01,,,0.01,weatherlink.com 1.10,2013-04-11 20:36:00,
2013-04-11 17:06:00,85.6,75.0,29.85,SSW,205,3.0,10.0,71,0.00,,,0.01,weatherlink.com 1.10,2013-04-11 21:06:00,
2013-04-11 17:21:00,86.1,75.0,29.84,SSE,150,4.0,9.0,70,0.00,,,0.01,weatherlink.com 1.10,2013-04-11 21:21:00,
2013-04-11 17:36:00,85.4,75.0,29.85,WSW,238,9.0,11.0,70,0.00,,,0.01,weatherlink.com 1.10,2013-04-11 21:36:00,
2013-04-11 17:51:00,84.6,75.0,29.85,SW,229,6.0,10.0,72,0.00,,,0.01,weatherlink.com 1.10,2013-04-11 21:51:00,
2013-04-11 18:06:00,83.6,74.0,29.84,WSW,248,3.0,10.0,73,0.00,,,0.01,weatherlink.com 1.10,2013-04-11 22:06:00,
2013-04-11 18:21:00,83.6,74.0,29.84,SSW,204,5.0,13.0,72,0.00,,,0.01,weatherlink.com 1.10,2013-04-11 22:21:00,
2013-04-11 18:36:00,83.0,74.0,29.84,WSW,240,4.0,10.0,74,0.00,,,0.01,weatherlink.com 1.10,2013-04-11 22:36:00,
2013-04-11 18:51:00,82.1,74.0,29.84,SW,225,3.0,10.0,77,0.00,,,0.01,weatherlink.com 1.10,2013-04-11 22:51:00,
2013-04-11 19:06:00,81.4,74.0,29.84,ENE,73,3.0,9.0,78,0.00,,,0.01,weatherlink.com 1.10,2013-04-11 23:06:00,
2013-04-11 19:21:00,81.2,73.0,29.85,SW,215,2.0,7.0,77,0.00,,,0.01,weatherlink.com 1.10,2013-04-11 23:21:00,
2013-04-11 19:36:00,80.8,73.0,29.85,SE,141,3.0,7.0,78,0.00,,,0.01,weatherlink.com 1.10,2013-04-11 23:36:00,
2013-04-11 19:51:00,80.6,73.0,29.85,East,81,2.0,9.0,77,0.00,,,0.01,weatherlink.com 1.10,2013-04-11 23:51:00,
2013-04-11 20:06:00,80.3,72.0,29.85,ESE,103,4.0,7.0,76,0.00,,,0.01,weatherlink.com 1.10,2013-04-12 00:06:00,
2013-04-11 20:21:00,79.8,72.0,29.85,South,169,1.0,4.0,78,0.00,,,0.01,weatherlink.com 1.10,2013-04-12 00:21:00,
2013-04-11 20:36:00,79.3,72.0,29.85,SSE,148,2.0,6.0,79,0.00,,,0.01,weatherlink.com 1.10,2013-04-12 00:36:00,
2013-04-11 21:06:00,78.6,72.0,29.85,SE,134,0.0,3.0,81,0.00,,,0.01,weatherlink.com 1.10,2013-04-12 01:06:00,
2013-04-11 21:21:00,78.0,72.0,29.85,SE,125,1.0,4.0,82,0.00,,,0.01,weatherlink.com 1.10,2013-04-12 01:21:00,
2013-04-11 21:36:00,77.8,72.0,29.85,SSE,165,1.0,3.0,83,0.00,,,0.01,weatherlink.com 1.10,2013-04-12 01:36:00,
2013-04-11 21:51:00,77.5,72.0,29.85,SE,124,1.0,4.0,83,0.00,,,0.01,weatherlink.com 1.10,2013-04-12 01:51:00,
2013-04-11 22:06:00,77.2,72.0,29.85,ESE,110,3.0,4.0,85,0.00,,,0.01,weatherlink.com 1.10,2013-04-12 02:06:00,
2013-04-11 22:21:00,76.9,73.0,29.85,SE,145,1.0,6.0,86,0.00,,,0.01,weatherlink.com 1.10,2013-04-12 02:21:00,
2013-04-11 22:36:00,76.8,72.0,29.85,SSE,159,5.0,6.0,86,0.00,,,0.01,weatherlink.com 1.10,2013-04-12 02:36:00,
2013-04-11 22:51:00,76.8,72.0,29.86,SE,142,3.0,8.0,86,0.00,,,0.01,weatherlink.com 1.10,2013-04-12 02:51:00,
2013-04-11 23:06:00,76.6,72.0,29.86,ESE,117,1.0,9.0,86,0.00,,,0.01,weatherlink.com 1.10,2013-04-12 03:06:00,
2013-04-11 23:36:00,76.4,72.0,29.86,WSW,250,3.0,10.0,87,0.00,,,0.01,weatherlink.com 1.10,2013-04-12 03:36:00,
2013-04-11 23:51:00,76.2,72.0,29.86,SSE,162,6.0,6.0,87,0.00,,,0.01,weatherlink.com 1.10,2013-04-12 03:51:00,